Regional Weather Roundup
Issued by NWS

Home | Current Version | Previous Version | Graphics & Text | Print | Product List | Glossary On
Versions: 1 2 3 4 5 6 7 8 9 10 11 12 13 14 15 16 17 18 19 20 21 22 23 24 25 26 27 28 29 30 31 32 33 34 35 36 37 38 39 40 41 42 43 44 45 46 47 48 49 50
000
ASUS43 KFSD 260410
RWRSD

WEATHER ROUNDUP FOR SOUTH DAKOTA
NATIONAL WEATHER SERVICE SIOUX FALLS SD
1000 PM CST TUE NOV 25 2014

NOTE: "FAIR" INDICATES FEW OR NO CLOUDS BELOW 12,000 FEET WITH NO
SIGNIFICANT WEATHER AND/OR OBSTRUCTIONS TO VISIBILITY.


SDZ001>005-009-010-012>017-260500-
NORTHWEST AND NORTH CENTRAL SOUTH DAKOTA

CITY           SKY/WX    TMP DP  RH WIND       PRES   REMARKS
BUFFALO          N/A     26  21  81 N25G36    29.92R WCI  11
FAITH            N/A     32  25  75 NW32G41   29.88R WCI  17
MOBRIDGE       CLOUDY    36  31  82 NW14      29.78R
$$

SDZ012>016-024>037-041>051-057-063-072>074-260500-
SOUTHWEST AND SOUTH CENTRAL SOUTH DAKOTA

CITY           SKY/WX    TMP DP  RH WIND       PRES   REMARKS
RAPID CTY ARPT MOCLDY    33  23  66 NW31G41   29.95R WCI  19
PIERRE         CLOUDY    37  30  75 NW24G32   29.81R
CUSTER         CLOUDY    27  15  61 NW14G32   29.89R WCI  16
ELLSWORTH AFB  PTCLDY    33  24  70 NW23G39   29.94R WCI  20
PHILIP         CLOUDY    36  28  73 NW24G32   29.89R
PINE RIDGE     CLOUDY    34  27  75 NW8       29.94R WCI  27
SPEARFISH      LGT RAIN  30  23  74 NW25G39   30.00R WCI  16
WINNER         FAIR      37  31  78 W16       29.83S
$$

SDZ004>011-016>023-039-040-260500-
NORTHEAST SOUTH DAKOTA

CITY           SKY/WX    TMP DP  RH WIND       PRES   REMARKS
ABERDEEN       MIX PCPN  31  28  89 E15       29.80R WCI  20
WATERTOWN      LGT SNOW  29  25  85 SE8       29.80S FOG     WCI  21
SISSETON         N/A     25  22  88 SE7       29.88R WCI  17
$$

SDZ017-020-022-023-036>040-048>070-260500-
SOUTHEAST SOUTH DAKOTA

CITY           SKY/WX    TMP DP  RH WIND       PRES   REMARKS
SIOUX FALLS    LGT SNOW  32  29  88 SE12      29.81F FOG     WCI  23
HURON          LGT SNOW  31  30  96 CALM      29.79S FOG
CHAMBERLAIN    CLOUDY    35  32  89 W8        29.81R WCI  28
MITCHELL       MIX PCPN  34  32  92 W5        29.80F WCI  30
YANKTON        CLOUDY    37  34  87 SE8       29.81F
$$

ABBREVIATIONS USED IN REMARKS
   TC - TEMPERATURE IN CELSIUS
  WCI - WIND CHILL INDEX
   HX - HEAT INDEX
  VSB - VISIBILITY




USA.gov is the U.S. government's official web portal to all federal, state and local government web resources and services.